Regional Weather Roundup
Issued by NWS Albany, NY

Home | Current Version | Previous Version | Text Only | Print | Product List | Glossary On
Versions: 1 2 3 4 5 6 7 8 9 10 11 12 13 14 15 16 17 18 19 20 21 22 23 24 25 26 27 28 29 30 31 32 33 34 35 36 37 38 39 40 41 42 43 44 45 46 47 48 49 50
000
ASUS41 KALY 010010
RWRALY

NEW YORK STATE HOURLY WEATHER ROUNDUP
NATIONAL WEATHER SERVICE ALBANY NY
800 PM EDT THU JUL 31 2014

NOTE: "FAIR" INDICATES FEW OR NO CLOUDS BELOW 12,000 FEET WITH NO
SIGNIFICANT WEATHER AND/OR NO OBSTRUCTIONS TO VISIBILITY.

NYZ032-033-038>043-046>054-057>066-NYZ062>081-010100-
EAST


CITY           SKY/WX    TMP DP  RH WIND       PRES   REMARKS
ALBANY         PTCLDY    71  65  81 CALM      30.08R
GLENS FALLS    MOCLDY    70  63  78 S7        30.08R
POUGHKEEPSIE   PTCLDY    74  65  73 CALM      30.08R
NEWBURGH       PTCLDY    77  61  57 W6        30.11R
MONTGOMERY     CLEAR     75  59  57 W3        30.09R
WHITE PLAINS   PTCLDY    73  63  70 S6        30.11S
ISLIP          PTCLDY    74  63  68 S8        30.12R
NEW YORK CITY  MOCLDY    77  65  66 S13G22    30.10R
CENTRAL PARK   MOCLDY    76  62  62 VRB3      30.13R
$$

NYZ005>009-017-018-044>046-055-056-010100-
CENTRAL


CITY           SKY/WX    TMP DP  RH WIND       PRES   REMARKS
FULTON         PTCLDY    66  61  84 SE5       30.07R
SYRACUSE       PTCLDY    66  59  78 E7        30.08R
ROME           PTCLDY    63  60  90 SE5       30.10F
ELMIRA         CLEAR     70  59  68 CALM      30.08R
BINGHAMTON     CLEAR     68  57  68 S6        30.12R
MONTICELLO     CLEAR     70  61  73 CALM      30.14S
$$

NYZ026>034-041>043-010100-
NORTH


CITY           SKY/WX    TMP DP  RH WIND       PRES   REMARKS
WATERTOWN      CLEAR     69  55  60 S5        30.05R
FORT DRUM      NOT AVBL
MASSENA        CLEAR     66  59  78 SW5       30.03S
SARANAC LAKE   CLEAR     61  54  77 SW5       30.08R
PLATTSBURGH    CLEAR     63  62  97 CALM      30.05R
$$

NYZ001>004-010>016-019>021-010100-
WEST


CITY           SKY/WX    TMP DP  RH WIND       PRES   REMARKS
NIAGARA FALLS  PTCLDY    69  51  52 SW13      30.05R
BUFFALO        PTCLDY    70  51  51 SW13      30.06R
DUNKIRK        CLEAR     67  50  54 SW6       30.08R
JAMESTOWN      CLEAR     66  55  68 W5        30.12R
WELLSVILLE     CLEAR     68  51  54 W5        30.14R
ROCHESTER      PTCLDY    71  49  45 W7        30.06R
PENN YAN       CLOUDY    70  57  63 S6        30.09R
$$

             KEY
       WCI = WIND CHILL INDEX
       VSB = VISIBILITY
       HX  = HEAT INDEX
$$



USA.gov is the U.S. government's official web portal to all federal, state and local government web resources and services.